Pian Rosa, Italy

10:11 AM CET on February 07, 2016 (GMT +0100)
Pian Rosa

Weather History for LIMH - October, 2012

Change the Weather History Date:

Monday, October 8, 2012

  Actual Average Record
Temperature  
Mean Temperature 30 °F -  
Max Temperature 34 °F 27 °F 39 °F (2006)
Min Temperature 27 °F 20 °F 10 °F (2011)
Degree Days  
Heating Degree Days 34    
Moisture  
Dew Point 3 °F    
Average Humidity 43    
Maximum Humidity 93    
Minimum Humidity 4    
Precipitation  
Precipitation 0.01 in - - ()
Sea Level Pressure  
Sea Level Pressure 30.31 in    
Wind  
Wind Speed 9 mph ()    
Max Wind Speed 18 mph    
Max Gust Speed -    
Visibility 4.0 miles    
Events Fog , Snow    
Averages and records for this station are not official NWS values.
T = Trace of Precipitation, MM = Missing Value Source: Averaged Metar Reports

Daily Weather History Graph

Daily Weather History Graph

Search for Another Location

Airport or City:

Trip Planner

Search our weather history database for the weather conditions in past years. The results will help you decide how hot, cold, wet, or windy it might be!

Date:

Astronomy

Oct. 08, 2012 Rise Set
Actual Time 7:36 AM CEST 6:55 PM CEST
Civil Twilight 7:07 AM CEST 7:25 PM CEST
Nautical Twilight 6:32 AM CEST 7:59 PM CEST
Astronomical Twilight 5:57 AM CEST 8:34 PM CEST
Moon No Moon Rise 2:54 PM CEST (10/8)
Length of Visible Light 12h 18m
Length of Day
11h 18m
Waning Gibbous, 49% of the Moon is Illuminated
Oct 8
Waning Gibbous
Oct 15
New
Oct 22
First Quarter
Oct 29
Full
Nov 7
Last Quarter

Hourly Weather History & Observations

Time (CEST) Temp. Windchill Dew Point Humidity Pressure Visibility Wind Dir Wind Speed Gust Speed Precip Events Conditions
12:55 AM 32.0 °F - -18.4 °F 11% 30.33 in - Calm Calm - N/A   Clear
1:55 AM 30.2 °F 19.8 °F -20.2 °F 10% 30.33 in - North 13.8 mph - N/A   Clear
2:00 AM 30 °F - -20 °F 4%  in 6 mi North 13.8 mph - -  
3:55 AM 30.2 °F - -20.2 °F 10% 30.33 in - Calm Calm - N/A   Clear
4:55 AM 30.2 °F 20.8 °F -20.2 °F 10% 30.30 in - North 11.5 mph - N/A   Clear
5:00 AM 31 °F - -20 °F 4%  in 9 mi North 11.5 mph - -  
5:55 AM 30.2 °F 20.2 °F -20.2 °F 10% 30.30 in - North 12.7 mph - N/A   Clear
6:55 AM 30.2 °F 22.6 °F -20.2 °F 10% 30.33 in - North 8.1 mph - N/A   Clear
7:55 AM 30.2 °F 18.5 °F -20.2 °F 10% 30.33 in - North 17.3 mph - N/A   Clear
8:00 AM 30 °F - -20 °F 4%  in 19 mi North 17.3 mph - -   Clear
8:55 AM 30.2 °F 18.9 °F -20.2 °F 10% 30.33 in - North 16.1 mph - N/A   Clear
9:55 AM 30.2 °F 18.1 °F -20.2 °F 10% 30.33 in - North 18.4 mph - N/A   Clear
10:55 AM 32.0 °F 23.0 °F -18.4 °F 11% 30.33 in - NNE 11.5 mph - N/A   Clear
11:00 AM 31 °F - -19 °F 4%  in 31 mi NNE 11.5 mph - -   Clear
11:55 AM 32.0 °F 22.5 °F -18.4 °F 11% 30.33 in - NNE 12.7 mph - N/A   Clear
12:55 PM 33.8 °F 28.6 °F -0.4 °F 23% 30.33 in 6.2 mi NE 5.8 mph - N/A   Partly Cloudy
1:55 PM 33.8 °F 28.6 °F 17.6 °F 52% 30.33 in 6.2 mi NNE 5.8 mph - N/A   Scattered Clouds
2:00 PM 34 °F - 17 °F 36%  in 12 mi NNE 5.8 mph - -   Mostly Cloudy
2:55 PM 33.8 °F 27.7 °F 23.0 °F 65% 30.33 in 6.2 mi NNE 6.9 mph - N/A   Scattered Clouds
3:55 PM 33.8 °F 26.4 °F 28.4 °F 81% 30.30 in 5.0 mi WNW 9.2 mph - N/A   Mostly Cloudy
4:55 PM 33.8 °F 26.4 °F 30.2 °F 87% 30.30 in 2.5 mi West 9.2 mph - N/A   Mostly Cloudy
5:00 PM 33 °F - 30 °F 82%  in 2 mi West 9.2 mph - -   Mist
5:55 PM 32.0 °F 23.0 °F 28.4 °F 87% 30.30 in 0.2 mi West 11.5 mph - N/A Fog , Snow Light Snow
6:55 PM 32.0 °F 24.8 °F 28.4 °F 87% 30.27 in 0.2 mi NNW 8.1 mph - N/A Fog , Snow Light Snow
7:55 PM 32.0 °F 27.5 °F 26.6 °F 80% 30.27 in 0.2 mi WSW 4.6 mph - N/A Fog , Snow Light Snow
8:00 PM 31 °F - 27 °F 81%  in 0 mi WSW 4.6 mph - - Snow Light Snow
8:55 PM 30.2 °F 19.3 °F 26.6 °F 86% 30.27 in 0.2 mi NNE 15.0 mph - N/A Fog , Snow Light Snow
9:55 PM 30.2 °F 18.1 °F 28.4 °F 93% 30.27 in 0.2 mi NE 18.4 mph - N/A Fog , Snow Light Snow
10:55 PM 28.4 °F 18.5 °F 26.6 °F 93% 30.24 in 0.2 mi NNE 11.5 mph - N/A Fog , Snow Light Snow
11:00 PM 29 °F - 26 °F 86%  in 0 mi NNE 11.5 mph - - Snow Light Snow
11:55 PM 30.2 °F 22.6 °F 24.8 °F 80% 30.24 in 0.2 mi NNE 8.1 mph - N/A Fog , Snow Light Snow